This demonstration page uses our WeatherBlox Daily Observations layout. Learn more.

38.88101, -77.10428

Hourly Observations for June 1, 2016

Temp ( °F °C ) Dew Point ( °F °C ) Humidity (%) Winds ( mph kmh ) Pressure ( in mb ) Visibility ( mi km ) Precip ( " mm )
12:52 am 00:52 Partly Cloudy 73 22.8 70 21.1 90 90 S 3 6 29.99 1016 10 16.0934 0 0
1:52 am 01:52 Mostly Cloudy 72 22.2 70 21.1 94 94 S 5 7 29.99 1016 10 16.0934 0 0
2:52 am 02:52 Mostly Cloudy 72 22.2 68 20 87 87 SW 3 6 30 1016 10 16.0934 0 0
3:52 am 03:52 Mostly Cloudy 71 21.7 68 20 90 90 WSW 3 6 30.01 1016 10 16.0934 0 0
4:52 am 04:52 Mostly Cloudy 70 21.1 67 19.4 90 90 SW 3 6 30.01 1016 10 16.0934 0 0
5:52 am 05:52 Partly Cloudy 70 21.1 68 20 93 93 S 3 6 30.02 1017 8 12.87472 0 0
6:52 am 06:52 Partly Cloudy 72 22.2 70 21.1 94 94 Calm 30.03 1017 8 12.87472 0 0
7:52 am 07:52 Mostly Cloudy 75 23.9 70 21.1 84 84 E 3 6 30.05 1018 9 14.48406 0 0
8:52 am 08:52 Mostly Cloudy 77 25 70 21.1 79 79 Calm 30.07 1018 10 16.0934 0 0
9:52 am 09:52 Mostly Cloudy 81 27.2 70 21.1 69 69 ENE 3 6 30.05 1018 10 16.0934 0 0
10:52 am 10:52 Mostly Cloudy 85 29.4 67 19.4 55 55 NNE 5 7 30.06 1018 10 16.0934 0 0
11:52 am 11:52 Mostly Cloudy 84 28.9 64 17.8 51 51 ENE 3 6 30.06 1018 10 16.0934 0 0
12:52 pm 12:52 Partly Cloudy 86 30 61 16.1 43 43 ESE 3 6 30.06 1018 10 16.0934 0 0
1:52 pm 13:52 Mostly Cloudy 85 29.4 65 18.3 51 51 SE 8 13 30.04 1017 10 16.0934 0 0
2:52 pm 14:52 Partly Cloudy 84 28.9 64 17.8 51 51 ESE 9 15 30.04 1017 10 16.0934 0 0
3:52 pm 15:52 Mostly Cloudy 84 28.9 63 17.2 49 49 SE 9 15 30.03 1017 10 16.0934 0 0
4:52 pm 16:52 Mostly Cloudy 83 28.3 63 17.2 51 51 SE 10 17 30.02 1017 10 16.0934 0 0
5:52 pm 17:52 Mostly Cloudy 80 26.7 69 20.6 69 69 SSE 18 30 30.03 1017 10 16.0934 0 0
6:52 pm 18:52 Mostly Cloudy 80 26.7 66 18.9 62 62 SE 14 22 30.04 1017 10 16.0934 0 0
7:52 pm 19:52 Mostly Cloudy 81 27 70 21 70 70 SSE 8 13 29.97 1015 10 16.0934 0 0
8:52 pm 20:52 Mostly Cloudy 77 25 66 18.9 69 69 SE 6 9 30.04 1017 10 16.0934 0 0
9:52 pm 21:52 Partly Cloudy 76 24.4 66 18.9 72 72 SE 6 9 30.06 1018 10 16.0934 0 0
10:52 pm 22:52 Partly Cloudy 74 23.3 67 19.4 79 79 S 7 11 30.07 1018 10 16.0934 0 0
11:52 pm 23:52 Mostly Clear 73 22.8 66 18.9 79 79 Calm 30.08 1019 10 16.0934 0 0

Powered by AerisWeather